Location: Ailingen
(47.6833°N, 9.5000°E)
Time: 06:15:27
(UTC+00:00)

Cosmos 1634 Rocket - Pass Details

Date: 18 November 2025
Orbit: 958 x 992 km, 82.9° (Epoch: 04 December)

Event Time Altitude Azimuth Distance (km) Brightness Sun altitude
Rises 17:41:48 0° 162° (SSE) 3,679 6.9 -19.9°
Reaches altitude 10° 17:44:27 10° 155° (SSE) 2,731 6.2 -20.4°
Enters shadow 17:50:03 39° 91° (E) 1,421 4.3 -21.3°
Exits shadow 17:57:50 - 17° (NNE) 3,410 6.6 -22.6°
Sets 17:58:33 0° 15° (NNE) 3,673 6.8 -22.7°
